Glencoe, MN

9:04 PM CST on December 08, 2019 (GMT -0600)
Glencoe Municipal

Weather History for KGYL - October, 2019

Change the Weather History Date:

Thursday, October 10, 2019

  Actual Average (KHCD) Record (KHCD)
Temperature  
Mean Temperature 50 °F -  
Max Temperature 60 °F 59 °F 83 °F (1974)
Min Temperature 37 °F 38 °F 23 °F (1970)
Degree Days  
Heating Degree Days 16    
Moisture  
Dew Point 51 °F    
Average Humidity 99    
Maximum Humidity 100    
Minimum Humidity 72    
Precipitation  
Precipitation 0.51 in - - ()
Sea Level Pressure  
Sea Level Pressure 29.81 in    
Wind  
Wind Speed 10 mph (SE)    
Max Wind Speed 13 mph    
Max Gust Speed 24 mph    
Visibility 6 miles    
Events Rain , Snow , Thunderstorm    
Averages and records for this station are not official NWS values.
T = Trace of Precipitation, MM = Missing Value Source: NWS Daily Summary

Daily Weather History Graph

Daily Weather History Graph

Search for Another Location

Airport or City:

Astronomy

Oct. 10, 2019 Rise Set
Actual Time 7:25 AM CDT 6:40 PM CDT
Civil Twilight 6:55 AM CDT 7:10 PM CDT
Nautical Twilight 6:22 AM CDT 7:43 PM CDT
Astronomical Twilight 5:48 AM CDT 8:17 PM CDT
Moon 5:52 PM CDT (10/10) 3:57 AM CDT (10/10)
Length of Visible Light 12h 14m
Length of Day
11h 15m
Waxing Gibbous, 91% of the Moon is Illuminated
Oct 10
Waxing Gibbous
Oct 13
Full
Oct 21
Last Quarter
Oct 27
New
Nov 4
First Quarter

Hourly Weather History & Observations

Time (CDT) Temp. Windchill Dew Point Humidity Pressure Visibility Wind Dir Wind Speed Gust Speed Precip Events Conditions
12:59 AM 57.2 °F - 48.2 °F 72% 29.97 in 10.0 mi SSE 12.7 mph 24.2 mph N/A   Light Drizzle
1:59 AM 53.6 °F - 53.6 °F 100% 29.95 in 7.0 mi SE 10.4 mph - N/A   Drizzle
2:59 AM 53.6 °F - 53.6 °F 100% 29.94 in 7.0 mi SE 9.2 mph - 0.02 in Rain Rain
3:59 AM 51.8 °F - 51.8 °F 100% 29.91 in 7.0 mi East 8.1 mph - 0.03 in   Overcast
4:59 AM 53.6 °F - 53.6 °F 100% 29.90 in 5.0 mi East 6.9 mph - N/A   Overcast
5:59 AM 53.6 °F - 53.6 °F 100% 29.89 in 4.0 mi ESE 8.1 mph - 0.01 in   Overcast
6:59 AM 53.6 °F - 53.6 °F 100% 29.86 in 5.0 mi East 5.8 mph - 0.01 in   Overcast
7:59 AM 53.6 °F - 53.6 °F 100% 29.86 in 10.0 mi East 5.8 mph - N/A   Overcast
8:59 AM 53.6 °F - 53.6 °F 100% 29.87 in 10.0 mi ESE 6.9 mph - 0.01 in   Overcast
9:59 AM 55.4 °F - 55.4 °F 100% 29.86 in 10.0 mi East 8.1 mph - N/A Rain Rain
11:59 AM 55.4 °F - 55.4 °F 100% 29.83 in 10.0 mi East 8.1 mph - N/A   Overcast
12:59 PM 57.2 °F - 57.2 °F 100% 29.80 in 10.0 mi East 10.4 mph - N/A   Overcast
1:59 PM 59.0 °F - 59.0 °F 100% 29.76 in 10.0 mi ESE 12.7 mph - N/A   Overcast
2:59 PM 59.0 °F - 59.0 °F 100% 29.74 in 10.0 mi ESE 11.5 mph 17.3 mph N/A   Overcast
3:59 PM 59.0 °F - 59.0 °F 100% 29.72 in 3.0 mi ESE 11.5 mph - N/A   Overcast
4:59 PM 60.8 °F - 60.8 °F 100% 29.70 in 10.0 mi ESE 10.4 mph - N/A   Overcast
5:59 PM 59.0 °F - 59.0 °F 100% 29.69 in 3.0 mi SE 10.4 mph - 0.02 in   Drizzle
6:59 PM 44.6 °F 40.2 °F 44.6 °F 100% 29.72 in 3.0 mi West 8.1 mph - 0.04 in   Drizzle
7:59 PM 42.8 °F 37.0 °F 42.8 °F 100% 29.74 in 4.0 mi West 10.4 mph - 0.05 in Rain Heavy Rain
8:59 PM 41.0 °F 35.2 °F 41.0 °F 100% 29.74 in 2.5 mi West 9.2 mph - 0.05 in   Drizzle
9:59 PM 39.2 °F 33.0 °F 39.2 °F 100% 29.75 in 2.5 mi West 9.2 mph 16.1 mph 0.01 in   Overcast
10:59 PM 39.2 °F 33.0 °F 39.2 °F 100% 29.75 in 3.0 mi West 9.2 mph 17.3 mph N/A   Overcast
11:40 PM - - - N/A% 29.76 in 3.0 mi SW 9.2 mph 19.6 mph 0.06 in Rain , Thunderstorm Thunderstorms and Rain
11:55 PM 37.4 °F 30.3 °F 37.6 °F 100% 29.77 in 2.0 mi SW 10.4 mph - 0.26 in Snow , Thunderstorm Light Thunderstorms and Snow